PST,Max TemperatureF,Mean TemperatureF,Min TemperatureF,Max Dew PointF,MeanDew PointF,Min DewpointF,Max Humidity, Mean Humidity, Min Humidity, Max Sea Level PressureIn, Mean Sea Level PressureIn, Min Sea Level PressureIn, Max VisibilityMiles, Mean VisibilityMiles, Min VisibilityMiles, Max Wind SpeedMPH, Mean Wind SpeedMPH, Max Gust SpeedMPH,PrecipitationIn, CloudCover, Events, WindDirDegrees
2013-2-1,56,40,23,27,22,11,88,52,16,30.38,30.31,30.24,10,10,10,14,6,16,0.00,0,,5
2013-2-2,51,40,28,26,23,20,75,52,28,30.43,30.34,30.27,10,10,10,13,5,20,0.00,0,,14
2013-2-3,59,43,27,27,21,17,81,51,21,30.24,30.17,30.06,10,10,10,21,9,28,0.00,1,,353
2013-2-4,59,43,26,19,14,5,58,35,11,30.23,30.14,30.06,10,10,10,20,8,22,0.00,0,,347
2013-2-5,58,43,27,20,17,12,63,40,17,30.11,29.99,29.88,10,10,10,17,7,21,0.00,0,,41
2013-2-6,51,39,26,15,11,6,50,33,16,30.14,30.05,29.89,10,10,9,21,8,24,0.00,0,,336
2013-2-7,53,36,19,12,7,1,62,37,12,30.12,29.93,29.68,10,10,10,30,12,37,0.00,0,,263
2013-2-8,36,31,26,22,19,15,75,55,35,29.77,29.68,29.63,10,8,4,36,25,46,T,6,Snow,317
2013-2-9,35,28,20,18,14,9,81,61,40,30.06,29.92,29.77,10,10,10,35,21,44,0.00,1,,326
2013-2-10,39,28,16,19,11,5,67,46,25,30.11,30.03,29.97,10,10,10,26,15,37,T,2,,360
2013-2-11,39,27,15,10,6,1,67,44,21,30.21,30.17,30.10,10,10,10,18,15,27,0.00,0,,4
2013-2-12,47,32,17,17,15,12,53,39,25,30.36,30.32,30.27,10,10,10,22,11,29,0.00,0,,345
2013-2-13,52,38,24,21,18,14,68,47,26,30.36,30.30,30.23,10,10,9,20,11,26,0.00,0,,346
2013-2-14,55,41,26,23,19,14,75,49,22,30.40,30.33,30.27,10,10,10,18,11,25,0.00,0,,5
2013-2-15,58,41,24,19,14,10,63,39,15,30.49,30.42,30.36,10,10,10,20,8,24,0.00,0,,27
2013-2-16,56,39,21,15,8,2,57,35,12,30.41,30.24,30.03,10,10,10,13,6,32,0.00,0,,17
2013-2-17,52,38,23,16,10,5,50,34,17,30.03,29.97,29.90,10,10,9,31,13,40,0.00,0,,350
2013-2-18,52,36,19,15,11,8,68,44,19,30.10,29.96,29.78,10,10,10,20,9,23,0.00,0,,107
2013-2-19,46,37,27,29,22,12,92,60,27,29.75,29.55,29.47,10,6,1,20,8,26,0.18,5,Snow,258
2013-2-20,39,30,21,27,21,11,92,66,40,29.93,29.65,29.46,10,8,2,30,17,39,0.01,5,Snow,356
2013-2-21,40,30,19,15,10,4,67,45,22,30.11,30.02,29.92,10,10,10,24,11,33,0.00,1,,9
2013-2-22,45,32,19,21,15,10,75,54,33,30.22,30.14,30.07,10,10,10,22,9,25,0.00,0,,353
2013-2-23,40,29,18,23,13,6,84,55,25,30.20,30.05,29.91,10,10,10,33,13,41,T,2,,359
2013-2-24,40,28,16,10,8,5,61,43,25,30.32,30.27,30.17,10,10,10,24,11,31,0.00,0,,359
2013-2-25,53,34,15,14,9,3,67,43,18,30.29,30.16,30.00,10,10,10,29,9,35,0.00,0,,340
2013-2-26,45,35,24,9,6,1,46,32,18,30.30,30.19,30.05,10,10,10,23,12,26,0.00,0,,348
2013-2-27,50,34,18,10,6,2,56,35,14,30.44,30.37,30.30,10,10,10,15,7,29,0.00,0,,15
2013-2-28,57,40,22,22,13,8,54,35,16,30.49,30.43,30.38,10,10,8,21,10,26,0.00,0,,347